| time (UTC) | temp F | wind direction | speed knots | gust knots | rain 1hr in | rain 24hr in | rain mn in | humidity % | barometer mb |
| 20260508094549 | 66 | 24 | 2.6 | 13.9 | 0.00 | 0.10 | 0.00 | 54 | 1015.8 |
| 20260508093041 | 64 | 7 | 1.7 | 15.6 | 0.00 | 0.10 | 0.00 | 55 | 1015.8 |
| 20260508091539 | 64 | 345 | 0.0 | 18.2 | 0.00 | 0.10 | 0.00 | 57 | 1015.8 |
| 20260508090044 | 64 | 14 | 7.8 | 19.1 | 0.00 | 0.10 | 0.00 | 58 | 1015.9 |
| 20260508084532 | 63 | 34 | 7.8 | 15.6 | 0.00 | 0.10 | 0.00 | 58 | 1015.8 |
| 20260508083036 | 63 | 32 | 8.7 | 19.1 | 0.00 | 0.10 | 0.00 | 58 | 1015.8 |
| 20260508081525 | 62 | 342 | 0.0 | 13.0 | 0.00 | 0.10 | 0.00 | 60 | 1015.8 |
| 20260508080020 | 61 | 11 | 3.5 | 19.1 | 0.00 | 0.10 | 0.00 | 59 | 1015.8 |
| 20260508074519 | 61 | 2 | 0.9 | 16.5 | 0.00 | 0.10 | 0.00 | 64 | 1015.8 |
| 20260508073012 | 61 | 12 | 6.1 | 20.9 | 0.00 | 0.10 | 0.00 | 63 | 1015.8 |
| 20260508071508 | 60 | 16 | 1.7 | 13.0 | 0.00 | 0.10 | 0.00 | 65 | 1015.8 |
| 20260508070003 | 59 | 329 | 7.8 | 16.5 | 0.00 | 0.10 | 0.00 | 68 | 1015.8 |
| 20260508064608 | 59 | 11 | 8.7 | 14.8 | 0.00 | 0.10 | 0.00 | 70 | 1015.7 |
| 20260508063055 | 58 | 338 | 8.7 | 15.6 | 0.00 | 0.10 | 0.00 | 73 | 1015.6 |
| 20260508061558 | 57 | 7 | 7.0 | 14.8 | 0.00 | 0.10 | 0.00 | 74 | 1015.6 |
| 20260508060049 | 56 | 6 | 2.6 | 13.0 | 0.00 | 0.10 | 0.00 | 76 | 1015.4 |
| 20260508054604 | 55 | 356 | 5.2 | 19.1 | 0.00 | 0.10 | 0.00 | 77 | 1015.5 |
| 20260508053037 | 55 | 1 | 8.7 | 16.5 | 0.00 | 0.10 | 0.00 | 80 | 1015.5 |
| 20260508051533 | 54 | 352 | 3.5 | 13.0 | 0.00 | 0.10 | 0.00 | 82 | 1015.4 |
| 20260508050035 | 53 | 346 | 0.9 | 9.6 | 0.00 | 0.10 | 0.00 | 83 | 1015.4 |
| 20260508044526 | 52 | 346 | 0.0 | 0.0 | 0.00 | 0.10 | 0.00 | 84 | 1015.3 |
| 20260508043027 | 52 | 346 | 0.0 | 0.0 | 0.00 | 0.10 | 0.00 | 84 | 1015.2 |
| 20260508041516 | 51 | 346 | 0.0 | 10.4 | 0.00 | 0.10 | 0.00 | 84 | 1015.1 |
| 20260508040013 | 51 | 346 | 0.0 | 8.7 | 0.00 | 0.10 | 0.00 | 84 | 1014.9 |
| 20260508034519 | 51 | 346 | 0.0 | 0.0 | 0.00 | 0.10 | 0.00 | 84 | 1014.9 |
| 20260508033009 | 51 | 346 | 0.0 | 0.9 | 0.00 | 0.10 | 0.00 | 84 | 1014.9 |
| 20260508031507 | 52 | 346 | 0.0 | 0.0 | 0.00 | 0.10 | 0.00 | 83 | 1014.7 |
| 20260508030003 | 52 | 346 | 0.0 | 0.0 | 0.00 | 0.10 | 0.00 | 83 | 1014.7 |
| 20260508024501 | 52 | 346 | 0.0 | 0.0 | 0.00 | 0.10 | 0.00 | 82 | 1014.5 |
| 20260508023101 | 52 | 346 | 0.0 | 0.0 | 0.00 | 0.10 | 0.00 | 82 | 1014.5 |
| 20260508021605 | 52 | 346 | 0.0 | 0.0 | 0.00 | 0.10 | 0.00 | 82 | 1014.5 |
| 20260508020057 | 53 | 346 | 0.0 | 0.0 | 0.00 | 0.10 | 0.00 | 82 | 1014.5 |
| 20260508014555 | 53 | 346 | 0.0 | 0.0 | 0.00 | 0.10 | 0.00 | 81 | 1014.4 |
| 20260508013053 | 53 | 346 | 1.7 | 10.4 | 0.00 | 0.10 | 0.00 | 80 | 1014.2 |
| 20260508011555 | 54 | 346 | 1.7 | 10.4 | 0.00 | 0.10 | 0.00 | 80 | 1014.1 |
| 20260508010050 | 54 | 346 | 0.0 | 0.0 | 0.00 | 0.10 | 0.00 | 80 | 1014.0 |
| 20260508004549 | 55 | 346 | 0.0 | 0.0 | 0.00 | 0.10 | 0.00 | 79 | 1014.0 |
| 20260508003048 | 55 | 346 | 2.6 | 13.9 | 0.00 | 0.10 | 0.00 | 79 | 1014.0 |
| 20260508001546 | 55 | 331 | 0.0 | 13.0 | 0.00 | 0.10 | 0.00 | 79 | 1013.9 |
| 20260508000059 | 55 | 304 | 2.6 | 11.3 | 0.00 | 0.10 | 0.00 | 80 | 1013.9 |
| 20260507234546 | 55 | 275 | 1.7 | 9.6 | 0.00 | 0.10 | 0.00 | 83 | 1013.9 |
| 20260507233040 | 55 | 272 | 0.0 | 0.0 | 0.00 | 0.10 | 0.00 | 85 | 1013.9 |
| 20260507231544 | 54 | 272 | 0.0 | 7.8 | 0.00 | 0.10 | 0.00 | 87 | 1014.0 |
| 20260507230038 | 54 | 267 | 0.0 | 4.3 | 0.00 | 0.10 | 0.00 | 88 | 1014.0 |
| 20260507224534 | 54 | 267 | 0.0 | 3.5 | 0.00 | 0.10 | 0.00 | 88 | 1013.9 |
| 20260507223034 | 54 | 267 | 0.0 | 0.0 | 0.00 | 0.10 | 0.00 | 88 | 1013.8 |
| 20260507221532 | 54 | 267 | 0.0 | 0.0 | 0.00 | 0.10 | 0.00 | 87 | 1013.8 |
| 20260507220031 | 54 | 267 | 0.0 | 0.0 | 0.00 | 0.10 | 0.00 | 88 | 1013.8 |
| 20260507214531 | 54 | 267 | 4.3 | 14.8 | 0.00 | 0.10 | 0.10 | 88 | 1013.9 |
| 20260507213037 | 54 | 267 | 0.0 | 14.8 | 0.00 | 0.10 | 0.10 | 89 | 1013.9 |
| 20260507211541 | 54 | 269 | 8.7 | 16.5 | 0.00 | 0.10 | 0.10 | 90 | 1013.9 |
| 20260507210028 | 54 | 240 | 8.7 | 19.1 | 0.01 | 0.10 | 0.10 | 90 | 1013.9 |
| 20260507204526 | 54 | 244 | 6.1 | 19.1 | 0.03 | 0.10 | 0.10 | 90 | 1013.9 |
| 20260507203025 | 54 | 226 | 7.8 | 24.3 | 0.03 | 0.10 | 0.10 | 90 | 1013.7 |
| 20260507201523 | 54 | 249 | 7.0 | 20.0 | 0.04 | 0.10 | 0.10 | 90 | 1013.8 |
| 20260507200020 | 54 | 250 | 15.6 | 27.8 | 0.03 | 0.09 | 0.09 | 89 | 1013.6 |
| 20260507194517 | 54 | 245 | 7.0 | 25.2 | 0.01 | 0.07 | 0.07 | 89 | 1013.5 |
| 20260507193018 | 55 | 259 | 11.3 | 24.3 | 0.01 | 0.07 | 0.07 | 89 | 1013.3 |
| 20260507191511 | 55 | 272 | 9.6 | 23.5 | 0.01 | 0.06 | 0.06 | 88 | 1013.1 |
| 20260507190010 | 55 | 251 | 4.3 | 15.6 | 0.01 | 0.06 | 0.06 | 88 | 1012.9 |
| 20260507184503 | 55 | 260 | 7.0 | 21.7 | 0.02 | 0.06 | 0.06 | 88 | 1012.5 |
| 20260507183002 | 55 | 240 | 8.7 | 18.2 | 0.04 | 0.06 | 0.06 | 88 | 1012.3 |
| 20260507181600 | 55 | 265 | 6.1 | 18.2 | 0.04 | 0.06 | 0.06 | 88 | 1012.3 |
| 20260507180107 | 56 | 254 | 12.2 | 22.6 | 0.04 | 0.05 | 0.05 | 87 | 1012.2 |
| 20260507174627 | 56 | 250 | 6.1 | 24.3 | 0.04 | 0.04 | 0.04 | 86 | 1012.3 |
| 20260507173052 | 57 | 261 | 11.3 | 23.5 | 0.02 | 0.02 | 0.02 | 84 | 1012.2 |
| 20260507171603 | 59 | 240 | 9.6 | 20.9 | 0.02 | 0.02 | 0.02 | 81 | 1011.9 |
| 20260507170046 | 60 | 235 | 0.9 | 12.2 | 0.01 | 0.01 | 0.01 | 76 | 1011.8 |
| 20260507164551 | 62 | 269 | 0.0 | 0.0 | 0.00 | 0.00 | 0.00 | 71 | 1011.7 |
| 20260507163043 | 62 | 271 | 7.0 | 20.0 | 0.00 | 0.00 | 0.00 | 66 | 1011.5 |
| 20260507161547 | 63 | 267 | 6.1 | 23.5 | 0.00 | 0.00 | 0.00 | 64 | 1011.1 |
| 20260507160108 | 63 | 270 | 13.0 | 28.7 | 0.00 | 0.00 | 0.00 | 61 | 1011.0 |
| 20260507154540 | 65 | 274 | 7.0 | 19.1 | 0.00 | 0.00 | 0.00 | 56 | 1010.7 |
| 20260507153039 | 65 | 257 | 4.3 | 17.4 | 0.00 | 0.00 | 0.00 | 55 | 1010.5 |
| 20260507151539 | 66 | 262 | 6.1 | 16.5 | 0.00 | 0.00 | 0.00 | 54 | 1010.5 |
| 20260507150039 | 68 | 240 | 2.6 | 12.2 | 0.00 | 0.00 | 0.00 | 51 | 1010.4 |
| 20260507144538 | 68 | 240 | 0.0 | 4.3 | 0.00 | 0.00 | 0.00 | 49 | 1010.4 |
| 20260507143037 | 69 | 240 | 0.9 | 10.4 | 0.00 | 0.00 | 0.00 | 50 | 1010.4 |
| 20260507141537 | 70 | 240 | 1.7 | 12.2 | 0.00 | 0.00 | 0.00 | 49 | 1010.5 |
| 20260507140044 | 69 | 196 | 2.6 | 13.0 | 0.00 | 0.00 | 0.00 | 51 | 1010.4 |
| 20260507134533 | 68 | 230 | 0.0 | 7.8 | 0.00 | 0.00 | 0.00 | 51 | 1010.5 |
| 20260507133034 | 68 | 269 | 3.5 | 16.5 | 0.00 | 0.00 | 0.00 | 51 | 1010.6 |
| 20260507131603 | 68 | 317 | 5.2 | 12.2 | 0.00 | 0.00 | 0.00 | 49 | 1010.7 |
| 20260507130031 | 68 | 340 | 0.0 | 6.1 | 0.00 | 0.00 | 0.00 | 49 | 1010.7 |
| 20260507124532 | 68 | 340 | 0.0 | 8.7 | 0.00 | 0.00 | 0.00 | 49 | 1010.8 |
| 20260507123040 | 69 | 340 | 0.0 | 4.3 | 0.00 | 0.00 | 0.00 | 48 | 1010.8 |
| 20260507121527 | 68 | 347 | 0.9 | 12.2 | 0.00 | 0.00 | 0.00 | 51 | 1010.8 |
| 20260507120030 | 67 | 354 | 4.3 | 16.5 | 0.00 | 0.00 | 0.00 | 51 | 1011.1 |
| 20260507114525 | 66 | 291 | 11.3 | 23.5 | 0.00 | 0.00 | 0.00 | 53 | 1011.0 |
| 20260507113054 | 66 | 316 | 9.6 | 23.5 | 0.00 | 0.00 | 0.00 | 52 | 1011.0 |
| 20260507111525 | 66 | 323 | 8.7 | 22.6 | 0.00 | 0.00 | 0.00 | 53 | 1011.1 |
| 20260507110019 | 65 | 350 | 5.2 | 16.5 | 0.00 | 0.00 | 0.00 | 53 | 1011.2 |
| 20260507104519 | 65 | 338 | 7.0 | 20.0 | 0.00 | 0.00 | 0.00 | 54 | 1011.4 |
| 20260507103015 | 64 | 343 | 10.4 | 26.1 | 0.00 | 0.00 | 0.00 | 54 | 1011.5 |
| 20260507101522 | 64 | 359 | 1.7 | 18.2 | 0.00 | 0.00 | 0.00 | 54 | 1011.6 |
| 20260507100027 | 64 | 359 | 3.5 | 17.4 | 0.00 | 0.00 | 0.00 | 53 | 1011.5 |